Skip Page Navigation
NASA JPL Caltech
NASA Logo - Jet Propulsion Laboratory + View the NASA Portal
+ Near-Earth Object (NEO) Program
Search JPL
JPL Home Earth Solar System Stars & Galaxies Technology
JPL Solar System Dynamics
BODIES ORBITS EPHEMERIDES TOOLS PHYSICAL DATA DISCOVERY FAQ SITE MAP
JPL Small-Body Database Browser
Search: [ help ]  
(2001 QJ142)
Classification: Apollo [NEO]          SPK-ID: 3092069
Ephemeris | Orbit Diagram | Orbital Elements | Physical Parameters | Close-Approach Data ]

[ hide orbit diagram ]
Orbit Diagram
Note: Make sure you have Java enabled on your browser to see the applet. This applet is provided as a 3D orbit visualization tool. The applet was implemented using 2-body methods, and hence should not be used for determining accurate long-term trajectories (over several years or decades) or planetary encounter circumstances. For accurate long-term ephemerides, please instead use our Horizons system.
Orbit Viewer

Additional Notes: the orbits shown in the applet are color coded. The planets are white lines, and the asteroid/comet is a blue line. The bright white line indicates the portion of the orbit that is above the ecliptic plane, and the darker portion is below the ecliptic plane. Likewise for the asteroid/comet orbit, the light blue indicates the portion above the ecliptic plane, and the dark blue the portion below the ecliptic plane.

Orbit Viewer applet originally written and kindly provided by Osamu Ajiki (AstroArts), and further modified by Ron Baalke (JPL).


Orbital Elements at Epoch 2456400.5 (2013-Apr-18.0) TDB
Reference: JPL 19 (heliocentric ecliptic J2000)
 Element Value Uncertainty (1-sigma)   Units 
e .08613264971029351 4.9621e-07  
a 1.061827968287006 1.386e-08 AU
q .970369911841949 5.3941e-07 AU
i 3.103182983345631 1.146e-05 deg
node 184.417714026793 6.8429e-05 deg
peri 63.85600708859737 0.00014705 deg
M 305.5260026040433 0.00014564 deg
tp 2456460.973682071224
(2013-Jun-17.47368207)
0.00016267 JED
period 399.6498620689928
1.09
7.8247e-06
2.142e-08
d
yr
n .9007885005546482 1.7637e-08 deg/d
Q 1.153286024732064 1.5053e-08 AU
  Orbit Determination Parameters
   # obs. used (total)      93  
   data-arc span      4112 days (11.26 yr)  
   first obs. used      2001-08-23  
   last obs. used      2012-11-25  
   planetary ephem.      DE405  
   SB-pert. ephem.      SB405-CPV-2  
   condition code      0  
   fit RMS      .50536  
   data source      ORB  
   producer      Otto Matic  
   solution date      2012-Nov-26 00:54:15  

Additional Information
 Earth MOID = .00940442 AU 
 T_jup = 5.799 
[ show covariance matrix ]

Ephemeris | Orbit Diagram | Orbital Elements | Physical Parameters | Close-Approach Data ]

Physical Parameter Table
Parameter Symbol Value Units Sigma Reference Notes
absolute magnitude H 23.454 mag .63386 19 autocmod 2.5b

[ show close-approach data ]
Ephemeris | Orbit Diagram | Orbital Elements | Physical Parameters | Close-Approach Data ]
ABOUT SSD CREDITS/AWARDS PRIVACY/COPYRIGHT GLOSSARY LINKS
FirstGov 2013-May-22 20:29 UT
(server date/time)  
NASA Home Page
Site Manager:   Donald K. Yeomans
Webmaster  Alan B. Chamberlin